User: anonymous   Login
Location: Vancouver
(49.2500°N, 123.1330°W)
Time: 12:03:11
(UTC-07:00)
Language:

Transit 2A Rocket - Orbit

View from above orbital plane
View from above orbital plane
View from above satellite
View from above satellite

Ground track
Ground track

The orbit data is extracted from the following two-line orbital elements,

1 00047U 60007C   15111.14345944  .00000782  00000-0  19699-3 0  9991
2 00047 066.6648 152.0487 0235785 242.4154 115.2826 14.41594257863462
Epoch (UTC): 21 April 2015 03:26:34
Eccentricity: 0.0235785
inclination: 66.6648°
perigee height: 585 km
apogee height: 921 km
right ascension of ascending node: 152.0487°
argument of perigee: 242.4154°
revolutions per day: 14.41594257
mean anomaly at epoch: 115.2826°
orbit number at epoch: 86346

The dashed part of the orbit path shows where the satellite is in the earth's shadow,  

DLR